Location: Faicchio
(41.2833°N, 14.4833°E)
Time: 06:46:52
(UTC+00:00)

Resurs 1-4 Rocket - Pass Details

Date: 15 June 2025
Orbit: 798 x 812 km, 98.8° (Epoch: 16 July)

Event Time Altitude Azimuth Distance (km) Brightness Sun altitude
Rises 00:04:21 0° 32° (NNE) 3,316 6.6 -23.8°
Reaches altitude 10° 00:07:34 10° 52° (NE) 2,382 5.2 -23.7°
Maximum altitude 00:10:52 17° 92° (E) 1,952 4.2 -23.5°
Enters shadow 00:13:29 12° 124° (SE) 2,230 4.2 -23.3°
